Year,Month,Day,Hour,Minute,Value (Times are PST for temperature in C)
2010,08,11,00,00,13.60
2010,08,11,00,01,13.60
2010,08,11,00,02,13.70
2010,08,11,00,03,13.70
2010,08,11,00,04,13.70
2010,08,11,00,05,13.70
2010,08,11,00,06,13.70
2010,08,11,00,07,13.70
2010,08,11,00,08,13.70
2010,08,11,00,09,13.70
2010,08,11,00,10,13.70
2010,08,11,00,11,13.70
2010,08,11,00,12,13.70
2010,08,11,00,13,13.70
2010,08,11,00,14,13.70
2010,08,11,00,15,13.70
2010,08,11,00,16,13.70
2010,08,11,00,17,13.70
2010,08,11,00,18,13.70
2010,08,11,00,19,13.70
2010,08,11,00,20,13.70
2010,08,11,00,21,13.70
2010,08,11,00,22,13.70
2010,08,11,00,23,13.70
2010,08,11,00,24,13.70
2010,08,11,00,25,13.70
2010,08,11,00,26,13.70
2010,08,11,00,27,13.70
2010,08,11,00,28,13.70
2010,08,11,00,29,13.70
2010,08,11,00,30,13.70
2010,08,11,00,31,13.70
2010,08,11,00,32,13.70
2010,08,11,00,33,13.70
2010,08,11,00,34,13.70
2010,08,11,00,35,13.70
2010,08,11,00,36,13.70
2010,08,11,00,37,13.70
2010,08,11,00,38,13.70
2010,08,11,00,39,13.70
2010,08,11,00,40,13.70
2010,08,11,00,41,13.70
2010,08,11,00,42,13.70
2010,08,11,00,43,13.70
2010,08,11,00,44,13.70
2010,08,11,00,45,13.70
2010,08,11,00,46,13.70
2010,08,11,00,47,13.70
2010,08,11,00,48,13.70
2010,08,11,00,49,13.70
2010,08,11,00,50,13.70
2010,08,11,00,51,13.70
2010,08,11,00,52,13.70
2010,08,11,00,53,13.70
2010,08,11,00,54,13.70
2010,08,11,00,55,13.70
2010,08,11,00,56,13.70
2010,08,11,00,57,13.70
2010,08,11,00,58,13.60
2010,08,11,00,59,13.60
2010,08,11,01,00,13.60
2010,08,11,01,01,13.60
2010,08,11,01,02,13.60
2010,08,11,01,03,13.60
2010,08,11,01,04,13.60
2010,08,11,01,05,13.60
2010,08,11,01,06,13.60
2010,08,11,01,07,13.60
2010,08,11,01,08,13.60
2010,08,11,01,09,13.50
2010,08,11,01,10,13.50
2010,08,11,01,11,13.50
2010,08,11,01,12,13.50
2010,08,11,01,13,13.50
2010,08,11,01,14,13.50
2010,08,11,01,15,13.50
2010,08,11,01,16,13.40
2010,08,11,01,17,13.40
2010,08,11,01,18,13.40
2010,08,11,01,19,13.40
2010,08,11,01,20,13.40
2010,08,11,01,21,13.40
2010,08,11,01,22,13.40
2010,08,11,01,23,13.40
2010,08,11,01,24,13.40
2010,08,11,01,25,13.40
2010,08,11,01,26,13.40
2010,08,11,01,27,13.40
2010,08,11,01,28,13.40
2010,08,11,01,29,13.30
2010,08,11,01,30,13.30
2010,08,11,01,31,13.30
2010,08,11,01,32,13.30
2010,08,11,01,33,13.30
2010,08,11,01,34,13.30
2010,08,11,01,35,13.30
2010,08,11,01,36,13.30
2010,08,11,01,37,13.30
2010,08,11,01,38,13.30
2010,08,11,01,39,13.30
2010,08,11,01,40,13.30
2010,08,11,01,41,13.20
2010,08,11,01,42,13.20
2010,08,11,01,43,13.20
2010,08,11,01,44,13.20
2010,08,11,01,45,13.20
2010,08,11,01,46,13.20
2010,08,11,01,47,13.10
2010,08,11,01,48,13.10
2010,08,11,01,49,13.10
2010,08,11,01,50,13.10
2010,08,11,01,51,13.10
2010,08,11,01,52,13.10
2010,08,11,01,53,13.10
2010,08,11,01,54,13.00
2010,08,11,01,55,13.00
2010,08,11,01,56,13.00
2010,08,11,01,57,13.00
2010,08,11,01,58,13.00
2010,08,11,01,59,13.00
2010,08,11,02,00,13.00
2010,08,11,02,01,13.00
2010,08,11,02,02,13.00
2010,08,11,02,03,12.90
2010,08,11,02,04,12.90
2010,08,11,02,05,12.90
2010,08,11,02,06,12.90
2010,08,11,02,07,12.90
2010,08,11,02,08,12.90
2010,08,11,02,09,12.90
2010,08,11,02,10,12.90
2010,08,11,02,11,12.90
2010,08,11,02,12,12.90
2010,08,11,02,13,12.80
2010,08,11,02,14,12.80
2010,08,11,02,15,12.80
2010,08,11,02,16,12.80
2010,08,11,02,17,12.80
2010,08,11,02,18,12.80
2010,08,11,02,19,12.80
2010,08,11,02,20,12.80
2010,08,11,02,21,12.80
2010,08,11,02,22,12.80
2010,08,11,02,23,12.80
2010,08,11,02,24,12.80
2010,08,11,02,25,12.80
2010,08,11,02,26,12.80
2010,08,11,02,27,12.80
2010,08,11,02,28,12.80
2010,08,11,02,29,12.70
2010,08,11,02,30,12.70
2010,08,11,02,31,12.70
2010,08,11,02,32,12.70
2010,08,11,02,33,12.70
2010,08,11,02,34,12.70
2010,08,11,02,35,12.70
2010,08,11,02,36,12.70
2010,08,11,02,37,12.70
2010,08,11,02,38,12.60
2010,08,11,02,39,12.60
2010,08,11,02,40,12.70
2010,08,11,02,41,12.70
2010,08,11,02,42,12.70
2010,08,11,02,43,12.70
2010,08,11,02,44,12.70
2010,08,11,02,45,12.70
2010,08,11,02,46,12.70
2010,08,11,02,47,12.70
2010,08,11,02,48,12.70
2010,08,11,02,49,12.70
2010,08,11,02,50,12.60
2010,08,11,02,51,12.60
2010,08,11,02,52,12.60
2010,08,11,02,53,12.60
2010,08,11,02,54,12.60
2010,08,11,02,55,12.60
2010,08,11,02,56,12.60
2010,08,11,02,57,12.60
2010,08,11,02,58,12.50
2010,08,11,02,59,12.50
2010,08,11,03,00,12.50
2010,08,11,03,01,12.50
2010,08,11,03,02,12.50
2010,08,11,03,03,12.40
2010,08,11,03,04,12.40
2010,08,11,03,05,12.40
2010,08,11,03,06,12.40
2010,08,11,03,07,12.40
2010,08,11,03,08,12.40
2010,08,11,03,09,12.40
2010,08,11,03,10,12.40
2010,08,11,03,11,12.30
2010,08,11,03,12,12.30
2010,08,11,03,13,12.30
2010,08,11,03,14,12.30
2010,08,11,03,15,12.30
2010,08,11,03,16,12.30
2010,08,11,03,17,12.30
2010,08,11,03,18,12.30
2010,08,11,03,19,12.30
2010,08,11,03,20,12.30
2010,08,11,03,21,12.30
2010,08,11,03,22,12.30
2010,08,11,03,23,12.30
2010,08,11,03,24,12.20
2010,08,11,03,25,12.20
2010,08,11,03,26,12.20
2010,08,11,03,27,12.20
2010,08,11,03,28,12.20
2010,08,11,03,29,12.20
2010,08,11,03,30,12.20
2010,08,11,03,31,12.20
2010,08,11,03,32,12.20
2010,08,11,03,33,12.20
2010,08,11,03,34,12.10
2010,08,11,03,35,12.10
2010,08,11,03,36,12.10
2010,08,11,03,37,12.10
2010,08,11,03,38,12.10
2010,08,11,03,39,12.00
2010,08,11,03,40,12.00
2010,08,11,03,41,12.00
2010,08,11,03,42,12.00
2010,08,11,03,43,12.00
2010,08,11,03,44,12.00
2010,08,11,03,45,12.00
2010,08,11,03,46,12.00
2010,08,11,03,47,11.90
2010,08,11,03,48,11.90
2010,08,11,03,49,11.90
2010,08,11,03,50,11.90
2010,08,11,03,51,12.00
2010,08,11,03,52,11.90
2010,08,11,03,53,12.00
2010,08,11,03,54,12.00
2010,08,11,03,55,12.00
2010,08,11,03,56,12.00
2010,08,11,03,57,12.00
2010,08,11,03,58,11.90
2010,08,11,03,59,11.90
2010,08,11,04,00,11.90
2010,08,11,04,01,11.90
2010,08,11,04,02,11.90
2010,08,11,04,03,11.90
2010,08,11,04,04,11.90
2010,08,11,04,05,11.90
2010,08,11,04,06,11.90
2010,08,11,04,07,11.90
2010,08,11,04,08,11.80
2010,08,11,04,09,11.80
2010,08,11,04,10,11.80
2010,08,11,04,11,11.80
2010,08,11,04,12,11.80
2010,08,11,04,13,11.80
2010,08,11,04,14,11.80
2010,08,11,04,15,11.80
2010,08,11,04,16,11.80
2010,08,11,04,17,11.80
2010,08,11,04,18,11.70
2010,08,11,04,19,11.70
2010,08,11,04,20,11.70
2010,08,11,04,21,11.70
2010,08,11,04,22,11.60
2010,08,11,04,23,11.60
2010,08,11,04,24,11.60
2010,08,11,04,25,11.60
2010,08,11,04,26,11.60
2010,08,11,04,27,11.60
2010,08,11,04,28,11.60
2010,08,11,04,29,11.60
2010,08,11,04,30,11.60
2010,08,11,04,31,11.60
2010,08,11,04,32,11.60
2010,08,11,04,33,11.50
2010,08,11,04,34,11.40
2010,08,11,04,35,11.40
2010,08,11,04,36,11.40
2010,08,11,04,37,11.40
2010,08,11,04,38,11.40
2010,08,11,04,39,11.40
2010,08,11,04,40,11.40
2010,08,11,04,41,11.40
2010,08,11,04,42,11.40
2010,08,11,04,43,11.40
2010,08,11,04,44,11.30
2010,08,11,04,45,11.30
2010,08,11,04,46,11.30
2010,08,11,04,47,11.30
2010,08,11,04,48,11.30
2010,08,11,04,49,11.30
2010,08,11,04,50,11.30
2010,08,11,04,51,11.30
2010,08,11,04,52,11.30
2010,08,11,04,53,11.30
2010,08,11,04,54,11.30
2010,08,11,04,55,11.30
2010,08,11,04,56,11.20
2010,08,11,04,57,11.20
2010,08,11,04,58,11.20
2010,08,11,04,59,11.20
2010,08,11,05,00,11.20
2010,08,11,05,01,11.20
2010,08,11,05,02,11.10
2010,08,11,05,03,11.10
2010,08,11,05,04,11.10
2010,08,11,05,05,11.10
2010,08,11,05,06,11.10
2010,08,11,05,07,11.10
2010,08,11,05,08,11.10
2010,08,11,05,09,11.20
2010,08,11,05,10,11.20
2010,08,11,05,11,11.20
2010,08,11,05,12,11.20
2010,08,11,05,13,11.20
2010,08,11,05,14,11.20
2010,08,11,05,15,11.20
2010,08,11,05,16,11.20
2010,08,11,05,17,11.20
2010,08,11,05,18,11.20
2010,08,11,05,19,11.20
2010,08,11,05,20,11.20
2010,08,11,05,21,11.20
2010,08,11,05,22,11.20
2010,08,11,05,23,11.20
2010,08,11,05,24,11.20
2010,08,11,05,25,11.20
2010,08,11,05,26,11.20
2010,08,11,05,27,11.10
2010,08,11,05,28,11.10
2010,08,11,05,29,11.10
2010,08,11,05,30,11.10
2010,08,11,05,31,11.10
2010,08,11,05,32,11.10
2010,08,11,05,33,11.10
2010,08,11,05,34,11.10
2010,08,11,05,35,11.10
2010,08,11,05,36,11.10
2010,08,11,05,37,11.20
2010,08,11,05,38,11.20
2010,08,11,05,39,11.20
2010,08,11,05,40,11.20
2010,08,11,05,41,11.20
2010,08,11,05,42,11.30
2010,08,11,05,43,11.30
2010,08,11,05,44,11.30
2010,08,11,05,45,11.30
2010,08,11,05,46,11.30
2010,08,11,05,47,11.30
2010,08,11,05,48,11.30
2010,08,11,05,49,11.30
2010,08,11,05,50,11.40
2010,08,11,05,51,11.40
2010,08,11,05,52,11.50
2010,08,11,05,53,11.60
2010,08,11,05,54,11.60
2010,08,11,05,55,11.60
2010,08,11,05,56,11.60
2010,08,11,05,57,11.60
2010,08,11,05,58,11.60
2010,08,11,05,59,11.60
2010,08,11,06,00,11.60
2010,08,11,06,01,11.70
2010,08,11,06,02,11.70
2010,08,11,06,03,11.80
2010,08,11,06,04,11.80
2010,08,11,06,05,11.80
2010,08,11,06,06,11.70
2010,08,11,06,07,11.70
2010,08,11,06,08,11.60
2010,08,11,06,09,11.60
2010,08,11,06,10,11.50
2010,08,11,06,11,11.40
2010,08,11,06,12,11.40
2010,08,11,06,13,11.30
2010,08,11,06,14,11.30
2010,08,11,06,15,11.30
2010,08,11,06,16,11.20
2010,08,11,06,17,11.20
2010,08,11,06,18,11.20
2010,08,11,06,19,11.30
2010,08,11,06,20,11.40
2010,08,11,06,21,11.40
2010,08,11,06,22,11.50
2010,08,11,06,23,11.60
2010,08,11,06,24,11.60
2010,08,11,06,25,11.60
2010,08,11,06,26,11.60
2010,08,11,06,27,11.60
2010,08,11,06,28,11.40
2010,08,11,06,29,11.40
2010,08,11,06,30,11.40
2010,08,11,06,31,11.40
2010,08,11,06,32,11.40
2010,08,11,06,33,11.30
2010,08,11,06,34,11.30
2010,08,11,06,35,11.30
2010,08,11,06,36,11.30
2010,08,11,06,37,11.40
2010,08,11,06,38,11.50
2010,08,11,06,39,11.60
2010,08,11,06,40,11.70
2010,08,11,06,41,11.80
2010,08,11,06,42,11.80
2010,08,11,06,43,11.90
2010,08,11,06,44,12.00
2010,08,11,06,45,12.00
2010,08,11,06,46,12.00
2010,08,11,06,47,11.90
2010,08,11,06,48,11.90
2010,08,11,06,49,11.80
2010,08,11,06,50,11.80
2010,08,11,06,51,11.80
2010,08,11,06,52,11.80
2010,08,11,06,53,11.70
2010,08,11,06,54,11.70
2010,08,11,06,55,11.70
2010,08,11,06,56,11.80
2010,08,11,06,57,11.80
2010,08,11,06,58,12.00
2010,08,11,06,59,12.00
2010,08,11,07,00,12.00
2010,08,11,07,01,12.10
2010,08,11,07,02,12.10
2010,08,11,07,03,12.10
2010,08,11,07,04,12.10
2010,08,11,07,05,12.10
2010,08,11,07,06,12.10
2010,08,11,07,07,12.20
2010,08,11,07,08,12.20
2010,08,11,07,09,12.30
2010,08,11,07,10,12.30
2010,08,11,07,11,12.40
2010,08,11,07,12,12.40
2010,08,11,07,13,12.50
2010,08,11,07,14,12.50
2010,08,11,07,15,12.50
2010,08,11,07,16,12.50
2010,08,11,07,17,12.50
2010,08,11,07,18,12.50
2010,08,11,07,19,12.50
2010,08,11,07,20,12.50
2010,08,11,07,21,12.50
2010,08,11,07,22,12.60
2010,08,11,07,23,12.60
2010,08,11,07,24,12.60
2010,08,11,07,25,12.70
2010,08,11,07,26,12.70
2010,08,11,07,27,12.80
2010,08,11,07,28,12.80
2010,08,11,07,29,12.80
2010,08,11,07,30,12.80
2010,08,11,07,31,12.80
2010,08,11,07,32,12.90
2010,08,11,07,33,12.90
2010,08,11,07,34,12.90
2010,08,11,07,35,12.90
2010,08,11,07,36,12.90
2010,08,11,07,37,12.90
2010,08,11,07,38,12.90
2010,08,11,07,39,13.00
2010,08,11,07,40,13.00
2010,08,11,07,41,13.10
2010,08,11,07,42,13.10
2010,08,11,07,43,13.20
2010,08,11,07,44,13.30
2010,08,11,07,45,13.30
2010,08,11,07,46,13.30
2010,08,11,07,47,13.40
2010,08,11,07,48,13.50
2010,08,11,07,49,13.50
2010,08,11,07,50,13.60
2010,08,11,07,51,13.60
2010,08,11,07,52,13.70
2010,08,11,07,53,13.70
2010,08,11,07,54,13.80
2010,08,11,07,55,13.90
2010,08,11,07,56,13.90
2010,08,11,07,57,14.00
2010,08,11,07,58,14.10
2010,08,11,07,59,14.10
2010,08,11,08,00,14.10
2010,08,11,08,01,14.20
2010,08,11,08,02,14.20
2010,08,11,08,03,14.20
2010,08,11,08,04,14.20
2010,08,11,08,05,14.20
2010,08,11,08,06,14.20
2010,08,11,08,07,14.10
2010,08,11,08,08,14.10
2010,08,11,08,09,14.10
2010,08,11,08,10,14.00
2010,08,11,08,11,14.00
2010,08,11,08,12,14.00
2010,08,11,08,13,13.90
2010,08,11,08,14,13.90
2010,08,11,08,15,13.80
2010,08,11,08,16,13.80
2010,08,11,08,17,13.80
2010,08,11,08,18,13.80
2010,08,11,08,19,13.80
2010,08,11,08,20,13.80
2010,08,11,08,21,13.70
2010,08,11,08,22,13.80
2010,08,11,08,23,13.80
2010,08,11,08,24,13.80
2010,08,11,08,25,13.80
2010,08,11,08,26,13.80
2010,08,11,08,27,13.80
2010,08,11,08,28,13.80
2010,08,11,08,29,13.80
2010,08,11,08,30,13.90
2010,08,11,08,31,13.90
2010,08,11,08,32,13.90
2010,08,11,08,33,14.00
2010,08,11,08,34,14.00
2010,08,11,08,35,14.00
2010,08,11,08,36,14.10
2010,08,11,08,37,14.10
2010,08,11,08,38,14.10
2010,08,11,08,39,14.10
2010,08,11,08,40,14.10
2010,08,11,08,41,14.20
2010,08,11,08,42,14.20
2010,08,11,08,43,14.30
2010,08,11,08,44,14.40
2010,08,11,08,45,14.50
2010,08,11,08,46,14.50
2010,08,11,08,47,14.60
2010,08,11,08,48,14.60
2010,08,11,08,49,14.60
2010,08,11,08,50,14.60
2010,08,11,08,51,14.60
2010,08,11,08,52,14.70
2010,08,11,08,53,14.70
2010,08,11,08,54,14.80
2010,08,11,08,55,14.80
2010,08,11,08,56,14.90
2010,08,11,08,57,15.00
2010,08,11,08,58,15.10
2010,08,11,08,59,15.10
2010,08,11,09,00,15.20
2010,08,11,09,01,15.20
2010,08,11,09,02,15.10
2010,08,11,09,03,15.00
2010,08,11,09,04,14.90
2010,08,11,09,05,14.90
2010,08,11,09,06,15.00
2010,08,11,09,07,15.10
2010,08,11,09,08,15.10
2010,08,11,09,09,15.00
2010,08,11,09,10,15.00
2010,08,11,09,11,15.00
2010,08,11,09,12,15.10
2010,08,11,09,13,15.00
2010,08,11,09,14,14.90
2010,08,11,09,15,14.80
2010,08,11,09,16,14.80
2010,08,11,09,17,14.70
2010,08,11,09,18,14.60
2010,08,11,09,19,14.60
2010,08,11,09,20,14.60
2010,08,11,09,21,14.70
2010,08,11,09,22,14.70
2010,08,11,09,23,14.70
2010,08,11,09,24,14.70
2010,08,11,09,25,14.80
2010,08,11,09,26,14.80
2010,08,11,09,27,14.80
2010,08,11,09,28,14.90
2010,08,11,09,29,14.80
2010,08,11,09,30,14.80
2010,08,11,09,31,14.80
2010,08,11,09,32,14.70
2010,08,11,09,33,14.70
2010,08,11,09,34,14.70
2010,08,11,09,35,14.70
2010,08,11,09,36,14.60
2010,08,11,09,37,14.60
2010,08,11,09,38,14.60
2010,08,11,09,39,14.50
2010,08,11,09,40,14.40
2010,08,11,09,41,14.20
2010,08,11,09,42,14.20
2010,08,11,09,43,14.20
2010,08,11,09,44,14.20
2010,08,11,09,45,14.20
2010,08,11,09,46,14.20
2010,08,11,09,47,14.30
2010,08,11,09,48,14.30
2010,08,11,09,49,14.30
2010,08,11,09,50,14.30
2010,08,11,09,51,14.20
2010,08,11,09,52,14.10
2010,08,11,09,53,14.00
2010,08,11,09,54,14.00
2010,08,11,09,55,14.00
2010,08,11,09,56,13.90
2010,08,11,09,57,13.70
2010,08,11,09,58,13.70
2010,08,11,09,59,13.60
2010,08,11,10,00,13.60
2010,08,11,10,01,13.40
2010,08,11,10,02,13.30
2010,08,11,10,03,13.30
2010,08,11,10,04,13.30
2010,08,11,10,05,13.20
2010,08,11,10,06,13.20
2010,08,11,10,07,13.20
2010,08,11,10,08,13.20
2010,08,11,10,09,13.20
2010,08,11,10,10,13.30
2010,08,11,10,11,13.30
2010,08,11,10,12,13.30
2010,08,11,10,13,13.30
2010,08,11,10,14,13.30
2010,08,11,10,15,13.10
2010,08,11,10,16,13.10
2010,08,11,10,17,13.00
2010,08,11,10,18,12.90
2010,08,11,10,19,12.90
2010,08,11,10,20,12.90
2010,08,11,10,21,12.80
2010,08,11,10,22,12.80
2010,08,11,10,23,12.60
2010,08,11,10,24,12.40
2010,08,11,10,25,12.30
2010,08,11,10,26,12.20
2010,08,11,10,27,12.20
2010,08,11,10,28,12.30
2010,08,11,10,29,12.30
2010,08,11,10,30,12.40
2010,08,11,10,31,12.50
2010,08,11,10,32,12.60
2010,08,11,10,33,12.60
2010,08,11,10,34,12.70
2010,08,11,10,35,12.90
2010,08,11,10,36,13.10
2010,08,11,10,37,13.30
2010,08,11,10,38,13.50
2010,08,11,10,39,13.70
2010,08,11,10,40,13.80
2010,08,11,10,41,13.90
2010,08,11,10,42,14.00
2010,08,11,10,43,14.10
2010,08,11,10,44,14.20
2010,08,11,10,45,14.20
2010,08,11,10,46,14.10
2010,08,11,10,47,14.10
2010,08,11,10,48,14.10
2010,08,11,10,49,14.10
2010,08,11,10,50,14.10
2010,08,11,10,51,14.20
2010,08,11,10,52,14.20
2010,08,11,10,53,14.20
2010,08,11,10,54,14.30
2010,08,11,10,55,14.30
2010,08,11,10,56,14.40
2010,08,11,10,57,14.40
2010,08,11,10,58,14.50
2010,08,11,10,59,14.60
2010,08,11,11,00,14.60
2010,08,11,11,01,14.70
2010,08,11,11,02,14.80
2010,08,11,11,03,14.90
2010,08,11,11,04,14.90
2010,08,11,11,05,15.00
2010,08,11,11,06,15.10
2010,08,11,11,07,15.20
2010,08,11,11,08,15.30
2010,08,11,11,09,15.30
2010,08,11,11,10,15.40
2010,08,11,11,11,15.50
2010,08,11,11,12,15.50
2010,08,11,11,13,15.60
2010,08,11,11,14,15.60
2010,08,11,11,15,15.60
2010,08,11,11,16,15.70
2010,08,11,11,17,15.70
2010,08,11,11,18,15.80
2010,08,11,11,19,15.80
2010,08,11,11,20,15.90
2010,08,11,11,21,15.90
2010,08,11,11,22,15.90
2010,08,11,11,23,15.80
2010,08,11,11,24,15.80
2010,08,11,11,25,15.90
2010,08,11,11,26,15.90
2010,08,11,11,27,15.90
2010,08,11,11,28,16.00
2010,08,11,11,29,16.10
2010,08,11,11,30,16.20
2010,08,11,11,31,16.20
2010,08,11,11,32,16.30
2010,08,11,11,33,16.40
2010,08,11,11,34,16.50
2010,08,11,11,35,16.60
2010,08,11,11,36,16.70
2010,08,11,11,37,16.70
2010,08,11,11,38,16.70
2010,08,11,11,39,16.70
2010,08,11,11,40,16.80
2010,08,11,11,41,16.90
2010,08,11,11,42,16.90
2010,08,11,11,43,17.10
2010,08,11,11,44,17.20
2010,08,11,11,45,17.30
2010,08,11,11,46,17.50
2010,08,11,11,47,17.60
2010,08,11,11,48,17.80
2010,08,11,11,49,18.00
2010,08,11,11,50,18.10
2010,08,11,11,51,18.30
2010,08,11,11,52,18.50
2010,08,11,11,53,18.60
2010,08,11,11,54,18.70
2010,08,11,11,55,18.90
2010,08,11,11,56,18.90
2010,08,11,11,57,18.90
2010,08,11,11,58,18.90
2010,08,11,11,59,18.80
2010,08,11,12,00,18.80
2010,08,11,12,01,18.60
2010,08,11,12,02,18.30
2010,08,11,12,03,18.10
2010,08,11,12,04,17.90
2010,08,11,12,05,17.70
2010,08,11,12,06,17.60
2010,08,11,12,07,17.50
2010,08,11,12,08,17.60
2010,08,11,12,09,17.70
2010,08,11,12,10,17.80
2010,08,11,12,11,17.90
2010,08,11,12,12,17.90
2010,08,11,12,13,17.90
2010,08,11,12,14,17.90
2010,08,11,12,15,17.90
2010,08,11,12,16,17.90
2010,08,11,12,17,17.90
2010,08,11,12,18,17.80
2010,08,11,12,19,17.70
2010,08,11,12,20,17.60
2010,08,11,12,21,17.50
2010,08,11,12,22,17.30
2010,08,11,12,23,17.20
2010,08,11,12,24,17.00
2010,08,11,12,25,16.90
2010,08,11,12,26,16.90
2010,08,11,12,27,16.80
2010,08,11,12,28,16.70
2010,08,11,12,29,16.60
2010,08,11,12,30,16.40
2010,08,11,12,31,16.30
2010,08,11,12,32,16.20
2010,08,11,12,33,16.10
2010,08,11,12,34,15.90
2010,08,11,12,35,15.80
2010,08,11,12,36,15.90
2010,08,11,12,37,16.10
2010,08,11,12,38,16.30
2010,08,11,12,39,16.40
2010,08,11,12,40,16.40
2010,08,11,12,41,16.40
2010,08,11,12,42,16.40
2010,08,11,12,43,16.30
2010,08,11,12,44,16.20
2010,08,11,12,45,16.10
2010,08,11,12,46,16.00
2010,08,11,12,47,15.90
2010,08,11,12,48,16.00
2010,08,11,12,49,15.90
2010,08,11,12,50,15.90
2010,08,11,12,51,15.90
2010,08,11,12,52,15.90
2010,08,11,12,53,15.90
2010,08,11,12,54,16.00
2010,08,11,12,55,16.10
2010,08,11,12,56,16.10
2010,08,11,12,57,16.20
2010,08,11,12,58,16.30
2010,08,11,12,59,16.40
2010,08,11,13,00,16.50
2010,08,11,13,01,16.60
2010,08,11,13,02,16.60
2010,08,11,13,03,16.70
2010,08,11,13,04,16.70
2010,08,11,13,05,16.80
2010,08,11,13,06,16.80
2010,08,11,13,07,16.90
2010,08,11,13,08,17.00
2010,08,11,13,09,17.20
2010,08,11,13,10,17.30
2010,08,11,13,11,17.30
2010,08,11,13,12,17.30
2010,08,11,13,13,17.30
2010,08,11,13,14,17.30
2010,08,11,13,15,17.40
2010,08,11,13,16,17.50
2010,08,11,13,17,17.50
2010,08,11,13,18,17.60
2010,08,11,13,19,17.70
2010,08,11,13,20,17.80
2010,08,11,13,21,17.90
2010,08,11,13,22,17.90
2010,08,11,13,23,18.10
2010,08,11,13,24,18.20
2010,08,11,13,25,18.20
2010,08,11,13,26,18.20
2010,08,11,13,27,18.30
2010,08,11,13,28,18.30
2010,08,11,13,29,18.40
2010,08,11,13,30,18.50
2010,08,11,13,31,18.60
2010,08,11,13,32,18.60
2010,08,11,13,33,18.70
2010,08,11,13,34,18.90
2010,08,11,13,35,19.00
2010,08,11,13,36,19.10
2010,08,11,13,37,19.30
2010,08,11,13,38,19.40
2010,08,11,13,39,19.50
2010,08,11,13,40,19.60
2010,08,11,13,41,19.60
2010,08,11,13,42,19.70
2010,08,11,13,43,19.80
2010,08,11,13,44,19.90
2010,08,11,13,45,19.90
2010,08,11,13,46,20.10
2010,08,11,13,47,20.20
2010,08,11,13,48,20.20
2010,08,11,13,49,20.30
2010,08,11,13,50,20.30
2010,08,11,13,51,20.40
2010,08,11,13,52,20.50
2010,08,11,13,53,20.50
2010,08,11,13,54,20.60
2010,08,11,13,55,20.70
2010,08,11,13,56,20.90
2010,08,11,13,57,20.90
2010,08,11,13,58,21.00
2010,08,11,13,59,21.00
2010,08,11,14,00,20.90
2010,08,11,14,01,20.90
2010,08,11,14,02,21.00
2010,08,11,14,03,21.00
2010,08,11,14,04,21.00
2010,08,11,14,05,21.00
2010,08,11,14,06,21.00
2010,08,11,14,07,21.10
2010,08,11,14,08,21.10
2010,08,11,14,09,21.10
2010,08,11,14,10,21.00
2010,08,11,14,11,21.00
2010,08,11,14,12,21.00
2010,08,11,14,13,21.00
2010,08,11,14,14,21.10
2010,08,11,14,15,21.10
2010,08,11,14,16,21.10
2010,08,11,14,17,21.00
2010,08,11,14,18,20.90
2010,08,11,14,19,20.80
2010,08,11,14,20,20.70
2010,08,11,14,21,20.70
2010,08,11,14,22,20.60
2010,08,11,14,23,20.60
2010,08,11,14,24,20.60
2010,08,11,14,25,20.60
2010,08,11,14,26,20.50
2010,08,11,14,27,20.40
2010,08,11,14,28,20.40
2010,08,11,14,29,20.40
2010,08,11,14,30,20.50
2010,08,11,14,31,20.50
2010,08,11,14,32,20.50
2010,08,11,14,33,20.50
2010,08,11,14,34,20.50
2010,08,11,14,35,20.40
2010,08,11,14,36,20.40
2010,08,11,14,37,20.30
2010,08,11,14,38,20.30
2010,08,11,14,39,20.30
2010,08,11,14,40,20.30
2010,08,11,14,41,20.40
2010,08,11,14,42,20.40
2010,08,11,14,43,20.50
2010,08,11,14,44,20.70
2010,08,11,14,45,20.70
2010,08,11,14,46,20.80
2010,08,11,14,47,20.80
2010,08,11,14,48,20.70
2010,08,11,14,49,20.60
2010,08,11,14,50,20.60
2010,08,11,14,51,20.60
2010,08,11,14,52,20.50
2010,08,11,14,53,20.40
2010,08,11,14,54,20.30
2010,08,11,14,55,20.00
2010,08,11,14,56,19.90
2010,08,11,14,57,19.70
2010,08,11,14,58,19.60
2010,08,11,14,59,19.70
2010,08,11,15,00,19.80
2010,08,11,15,01,19.90
2010,08,11,15,02,19.90
2010,08,11,15,03,19.90
2010,08,11,15,04,20.00
2010,08,11,15,05,20.10
2010,08,11,15,06,20.10
2010,08,11,15,07,20.20
2010,08,11,15,08,20.30
2010,08,11,15,09,20.40
2010,08,11,15,10,20.40
2010,08,11,15,11,20.40
2010,08,11,15,12,20.40
2010,08,11,15,13,20.40
2010,08,11,15,14,20.40
2010,08,11,15,15,20.30
2010,08,11,15,16,20.30
2010,08,11,15,17,20.20
2010,08,11,15,18,20.20
2010,08,11,15,19,20.20
2010,08,11,15,20,20.30
2010,08,11,15,21,20.30
2010,08,11,15,22,20.40
2010,08,11,15,23,20.50
2010,08,11,15,24,20.50
2010,08,11,15,25,20.50
2010,08,11,15,26,20.60
2010,08,11,15,27,20.70
2010,08,11,15,28,20.70
2010,08,11,15,29,20.80
2010,08,11,15,30,20.90
2010,08,11,15,31,21.00
2010,08,11,15,32,21.20
2010,08,11,15,33,21.10
2010,08,11,15,34,21.10
2010,08,11,15,35,21.10
2010,08,11,15,36,21.10
2010,08,11,15,37,21.10
2010,08,11,15,38,21.20
2010,08,11,15,39,21.10
2010,08,11,15,40,21.10
2010,08,11,15,41,21.10
2010,08,11,15,42,21.10
2010,08,11,15,43,21.20
2010,08,11,15,44,21.20
2010,08,11,15,45,21.10
2010,08,11,15,46,21.10
2010,08,11,15,47,21.10
2010,08,11,15,48,21.10
2010,08,11,15,49,21.20
2010,08,11,15,50,21.30
2010,08,11,15,51,21.30
2010,08,11,15,52,21.30
2010,08,11,15,53,21.30
2010,08,11,15,54,21.30
2010,08,11,15,55,21.30
2010,08,11,15,56,21.10
2010,08,11,15,57,21.10
2010,08,11,15,58,21.00
2010,08,11,15,59,21.00
2010,08,11,16,00,21.10
2010,08,11,16,01,21.10
2010,08,11,16,02,21.20
2010,08,11,16,03,21.20
2010,08,11,16,04,21.30
2010,08,11,16,05,21.40
2010,08,11,16,06,21.50
2010,08,11,16,07,21.60
2010,08,11,16,08,21.60
2010,08,11,16,09,21.60
2010,08,11,16,10,21.60
2010,08,11,16,11,21.60
2010,08,11,16,12,21.70
2010,08,11,16,13,21.80
2010,08,11,16,14,21.80
2010,08,11,16,15,21.80
2010,08,11,16,16,21.80
2010,08,11,16,17,21.80
2010,08,11,16,18,21.80
2010,08,11,16,19,21.90
2010,08,11,16,20,22.00
2010,08,11,16,21,22.00
2010,08,11,16,22,22.00
2010,08,11,16,23,22.10
2010,08,11,16,24,22.10
2010,08,11,16,25,22.10
2010,08,11,16,26,22.10
2010,08,11,16,27,22.20
2010,08,11,16,28,22.20
2010,08,11,16,29,22.30
2010,08,11,16,30,22.40
2010,08,11,16,31,22.40
2010,08,11,16,32,22.30
2010,08,11,16,33,22.30
2010,08,11,16,34,22.20
2010,08,11,16,35,22.10
2010,08,11,16,36,22.10
2010,08,11,16,37,22.00
2010,08,11,16,38,22.00
2010,08,11,16,39,22.10
2010,08,11,16,40,22.10
2010,08,11,16,41,22.20
2010,08,11,16,42,22.20
2010,08,11,16,43,22.30
2010,08,11,16,44,22.40
2010,08,11,16,45,22.30
2010,08,11,16,46,22.30
2010,08,11,16,47,22.30
2010,08,11,16,48,22.20
2010,08,11,16,49,22.10
2010,08,11,16,50,22.10
2010,08,11,16,51,22.00
2010,08,11,16,52,22.00
2010,08,11,16,53,21.90
2010,08,11,16,54,21.80
2010,08,11,16,55,21.80
2010,08,11,16,56,21.80
2010,08,11,16,57,21.70
2010,08,11,16,58,21.70
2010,08,11,16,59,21.80
2010,08,11,17,00,21.80
2010,08,11,17,01,21.80
2010,08,11,17,02,21.70
2010,08,11,17,03,21.70
2010,08,11,17,04,21.70
2010,08,11,17,05,21.70
2010,08,11,17,06,21.70
2010,08,11,17,07,21.70
2010,08,11,17,08,21.80
2010,08,11,17,09,21.80
2010,08,11,17,10,21.80
2010,08,11,17,11,21.80
2010,08,11,17,12,21.80
2010,08,11,17,13,21.70
2010,08,11,17,14,21.80
2010,08,11,17,15,21.80
2010,08,11,17,16,21.90
2010,08,11,17,17,21.90
2010,08,11,17,18,21.80
2010,08,11,17,19,21.80